Regional Weather Roundup
Issued by NWS

Home | Current Version | Previous Version | Graphics & Text | Print | Product List | Glossary Off
Versions: 1 2 3 4 5 6 7 8 9 10 11 12 13 14 15 16 17 18 19 20 21 22 23 24 25 26 27 28 29 30 31 32 33 34 35 36 37 38 39 40 41 42 43 44 45 46 47 48 49 50

000
ASUS43 KTOP 271159
RWRKS

WEATHER ROUNDUP FOR KANSAS
NATIONAL WEATHER SERVICE GOODLAND KS
700 AM CDT THU AUG 27 2015

NOTE:  "FAIR" INDICATES FEW OR NO CLOUDS BELOW 12,000 FEET WITH NO
SIGNIFICANT WEATHER AND/OR OBSTRUCTIONS TO VISIBILITY.

KSZ001>006-013>018-027>032-041>047-271300-
NORTHWEST KANSAS

CITY           SKY/WX    TMP DP  RH WIND       PRES   REMARKS
GOODLAND       CLOUDY    69  54  58 S9        29.99F
6HR MIN TEMP:  68; 6HR MAX TEMP:  76;

HAYS           PTCLDY    72  55  56 SW9       29.97F
HILL CITY      MOCLDY    71  60  68 SW6       29.95F
6HR MIN TEMP:  69; 6HR MAX TEMP:  76;

RUSSELL        MOCLDY    69  63  81 S10       29.96F
6HR MIN TEMP:  69; 6HR MAX TEMP:  80;

$$

KSZ061>065-074>080-084>089-271300-
SOUTHWEST KANSAS

CITY           SKY/WX    TMP DP  RH WIND       PRES   REMARKS
DODGE CITY     MOCLDY    67  59  75 SW8       30.04S
6HR MIN TEMP:  66; 6HR MAX TEMP:  75;

ELKHART          N/A     72  54  53 SW6         N/A
GARDEN CITY    CLOUDY    71  58  63 S8        30.02F
6HR MIN TEMP:  68; 6HR MAX TEMP:  76;

GREAT BEND     MOCLDY    66  61  82 S8        29.99F
LIBERAL        CLOUDY    66  57  72 S7        30.07S
$$

KSZ066>073-081>083-090>101-271300-
SOUTHEAST KANSAS

CITY           SKY/WX    TMP DP  RH WIND       PRES   REMARKS
CHANUTE        TSTM      66  65  96 VRB5      30.11R VSB 1
6HR MIN TEMP:  66; 6HR MAX TEMP:  69; 6HR PCP:  0.86;

COFFEYVILLE    CLOUDY    69  65  86 SE6       30.07R
6HR MIN TEMP:  67; 6HR MAX TEMP:  69;

HUTCHINSON     MOCLDY    70  67  90 S6        30.00F
6HR MIN TEMP:  70; 6HR MAX TEMP:  76;

NEWTON         PTCLDY    70  63  78 S9        30.03F
WICHITA INTL   MOCLDY    71  66  84 S9        30.01F
6HR MIN TEMP:  71; 6HR MAX TEMP:  75;

WICHITA JABRA  PTCLDY    70  66  87 S8        30.01F
6HR MIN TEMP:  70; 6HR MAX TEMP:  74;

WINFIELD       PTCLDY    70  65  84 SE6       30.04S
6HR MIN TEMP:  70; 6HR MAX TEMP:  75;

$$

KSZ007>012-019>026-033>040-048>060-102>105-271300-
NORTHEAST KANSAS

CITY           SKY/WX    TMP DP  RH WIND       PRES   REMARKS
CONCORDIA      MOCLDY    70  67  90 S14       29.98F
6HR MIN TEMP:  69; 6HR MAX TEMP:  73;

EMPORIA        PTCLDY    65  60  84 SE13      30.04F
6HR MIN TEMP:  65; 6HR MAX TEMP:  69;

LAWRENCE       MOCLDY    64  60  87 SE5       30.07S
6HR MIN TEMP:  62; 6HR MAX TEMP:  66; 6HR PCP:  0.01;

MANHATTAN      MOCLDY    70  63  78 E6        30.01S
6HR MIN TEMP:  70; 6HR MAX TEMP:  73;

OLATHE IND     LGT RAIN  63  59  87 SE13      30.10R
6HR MIN TEMP:  62; 6HR MAX TEMP:  66; 6HR PCP:  0.12;

OLATHE EXE     TSTM      63  57  81 S10       30.09S
6HR MIN TEMP:  63; 6HR MAX TEMP:  66; 6HR PCP:  0.13;

SALINA         MOCLDY    72  68  87 S7        29.98F
6HR MIN TEMP:  72; 6HR MAX TEMP:  75;

TOPEKA BILLARD PTCLDY    67  62  84 E8        30.05S
6HR MIN TEMP:  66; 6HR MAX TEMP:  69;

TOPEKA FORBES  PTCLDY    67  61  81 SE9       30.04F
6HR MIN TEMP:  67; 6HR MAX TEMP:  69;

$$



USA.gov is the U.S. government's official web portal to all federal, state and local government web resources and services.